Friday Harbor, WA

1:02 PM PDT on April 25, 2017 (GMT -0700)
Friday Harbor

Weather History for KFHR - November, 2012

Change the Weather History Date:

Friday, November 30, 2012

  Actual Average Record
Temperature  
Mean Temperature 50 °F -  
Max Temperature 52 °F 45 °F 54 °F (2002)
Min Temperature 48 °F 36 °F 21 °F (2014)
Degree Days  
Heating Degree Days 15    
Moisture  
Dew Point 46 °F    
Average Humidity 84    
Maximum Humidity 93    
Minimum Humidity 69    
Precipitation  
Precipitation 0.05 in - - ()
Sea Level Pressure  
Sea Level Pressure 29.35 in    
Wind  
Wind Speed 15 mph (SE)    
Max Wind Speed 22 mph    
Max Gust Speed 33 mph    
Visibility 10 miles    
Events Rain    
Averages and records for this station are not official NWS values.
T = Trace of Precipitation, MM = Missing Value Source: NWS Daily Summary

Daily Weather History Graph

Daily Weather History Graph

Search for Another Location

Airport or City:

Trip Planner

Search our weather history database for the weather conditions in past years. The results will help you decide how hot, cold, wet, or windy it might be!

Date:

Astronomy

Nov. 30, 2012 Rise Set
Actual Time 7:42 AM PST 4:19 PM PST
Civil Twilight 7:06 AM PST 4:55 PM PST
Nautical Twilight 6:27 AM PST 5:34 PM PST
Astronomical Twilight 5:49 AM PST 6:12 PM PST
Moon 6:20 PM PST (11/30) 9:17 AM PST (11/30)
Length of Visible Light 9h 48m
Length of Day
8h 37m
Waning Gibbous, 96% of the Moon is Illuminated
Nov 30
Waning Gibbous
Dec 6
Last Quarter
Dec 13
New
Dec 19
First Quarter
Dec 28
Full

Hourly Weather History & Observations

Time (PST) Temp. Dew Point Humidity Pressure Visibility Wind Dir Wind Speed Gust Speed Precip Events Conditions
12:53 AM 51.1 °F 42.1 °F 71% 29.37 in 10.0 mi ESE 11.5 mph 20.7 mph N/A   Partly Cloudy
1:53 AM 52.0 °F 42.1 °F 69% 29.35 in 10.0 mi ESE 20.7 mph 31.1 mph N/A   Clear
2:53 AM 51.1 °F 43.0 °F 74% 29.34 in 10.0 mi ESE 20.7 mph 33.4 mph N/A   Scattered Clouds
3:53 AM 51.1 °F 44.1 °F 77% 29.33 in 10.0 mi SE 21.9 mph 28.8 mph N/A   Mostly Cloudy
4:53 AM 50.0 °F 44.1 °F 80% 29.34 in 10.0 mi SE 13.8 mph - N/A   Overcast
5:53 AM 50.0 °F 44.1 °F 80% 29.31 in 10.0 mi ESE 13.8 mph 23.0 mph N/A   Partly Cloudy
6:53 AM 51.1 °F 44.1 °F 77% 29.31 in 10.0 mi SE 15.0 mph 24.2 mph N/A   Partly Cloudy
7:53 AM 51.1 °F 44.1 °F 77% 29.34 in 10.0 mi South 13.8 mph 29.9 mph 0.00 in Rain Light Rain
8:16 AM 50.0 °F 46.4 °F 87% 29.36 in 6.0 mi SSW 12.7 mph 26.5 mph 0.01 in Rain Light Rain
8:53 AM 48.9 °F 46.9 °F 93% 29.35 in 10.0 mi South 4.6 mph - 0.02 in   Overcast
9:23 AM 50.0 °F 46.4 °F 87% 29.35 in 10.0 mi SE 16.1 mph 21.9 mph N/A   Mostly Cloudy
9:49 AM 50.0 °F 46.4 °F 87% 29.36 in 10.0 mi SSE 15.0 mph 24.2 mph 0.00 in Rain Light Rain
9:53 AM 50.0 °F 46.0 °F 86% 29.36 in 10.0 mi SE 17.3 mph 25.3 mph 0.00 in Rain Light Rain
10:53 AM 51.1 °F 46.9 °F 86% 29.38 in 10.0 mi SE 11.5 mph 20.7 mph 0.00 in Rain Light Rain
11:21 AM 51.8 °F 46.4 °F 82% 29.36 in 7.0 mi SE 15.0 mph 21.9 mph 0.00 in Rain Light Rain
11:53 AM 51.1 °F 46.9 °F 86% 29.36 in 10.0 mi SSE 11.5 mph 23.0 mph 0.00 in   Overcast
12:35 PM 51.8 °F 48.2 °F 88% 29.35 in 10.0 mi SE 16.1 mph 25.3 mph 0.03 in Rain Light Rain
12:46 PM 51.8 °F 46.4 °F 82% 29.35 in 10.0 mi SE 15.0 mph - 0.03 in   Mostly Cloudy
12:53 PM 51.1 °F 46.9 °F 86% 29.36 in 10.0 mi SSE 16.1 mph 23.0 mph 0.03 in   Mostly Cloudy
1:53 PM 51.1 °F 48.0 °F 89% 29.38 in 8.0 mi SSE 8.1 mph - 0.00 in Rain Light Rain
2:53 PM 50.0 °F 48.0 °F 93% 29.38 in 8.0 mi SSE 6.9 mph - 0.00 in Rain Light Rain
3:53 PM 48.9 °F 46.9 °F 93% 29.39 in 10.0 mi SE 5.8 mph - 0.00 in   Partly Cloudy
4:53 PM 50.0 °F 46.9 °F 89% 29.39 in 10.0 mi ESE 8.1 mph - N/A   Mostly Cloudy
5:07 PM 48.2 °F 46.4 °F 93% 29.39 in 10.0 mi SE 11.5 mph - N/A   Mostly Cloudy
5:53 PM 50.0 °F 46.9 °F 89% 29.39 in 10.0 mi South 5.8 mph - N/A   Overcast
7:31 PM 48.2 °F 44.6 °F 87% 29.36 in 10.0 mi SE 13.8 mph 19.6 mph N/A   Overcast
7:53 PM 48.9 °F 45.0 °F 86% 29.37 in 10.0 mi SE 15.0 mph - N/A   Mostly Cloudy
8:09 PM 48.2 °F 44.6 °F 87% 29.36 in 10.0 mi SE 15.0 mph 21.9 mph N/A   Mostly Cloudy
8:53 PM 48.9 °F 45.0 °F 86% 29.34 in 10.0 mi ESE 17.3 mph 24.2 mph N/A   Mostly Cloudy
9:37 PM 50.0 °F 44.6 °F 82% 29.35 in 10.0 mi SSE 18.4 mph 25.3 mph N/A   Mostly Cloudy
9:50 PM 50.0 °F 44.6 °F 82% 29.33 in 10.0 mi SE 19.6 mph 28.8 mph N/A   Overcast
9:53 PM 50.0 °F 45.0 °F 83% 29.33 in 10.0 mi SE 21.9 mph 28.8 mph N/A   Overcast
10:53 PM 50.0 °F 45.0 °F 83% 29.33 in 10.0 mi ESE 19.6 mph 32.2 mph N/A   Mostly Cloudy
11:53 PM 50.0 °F 45.0 °F 83% 29.32 in 10.0 mi SE 20.7 mph 33.4 mph 0.00 in Rain Light Rain